Time,TemperatureF,DewpointF,PressureIn,WindDirection,WindDirectionDegrees,WindSpeedMPH,WindSpeedGustMPH,Humidity,HourlyPrecipIn,Conditions,Clouds,dailyrainin,SoftwareType,DateUTC
2013-01-08 00:03:00,45.1,39.9,30.24,ENE,57,1.0,3.0,82,0.00,,---,0.00,VWS V13.01,2013-01-08 06:03:00,
2013-01-08 00:08:00,45.1,39.9,30.25,NNE,22,0.0,3.0,82,0.00,,---,0.00,VWS V13.01,2013-01-08 06:08:00,
2013-01-08 00:13:00,45.1,39.9,30.24,NE,53,0.0,1.0,82,0.00,,---,0.00,VWS V13.01,2013-01-08 06:13:00,
2013-01-08 00:18:00,45.2,40.0,30.24,ENE,58,3.0,4.0,82,0.00,,---,0.00,VWS V13.01,2013-01-08 06:18:00,
2013-01-08 00:23:00,45.2,40.3,30.24,NE,51,0.0,3.0,83,0.00,,---,0.00,VWS V13.01,2013-01-08 06:23:00,
2013-01-08 00:28:00,45.2,40.3,30.23,East,97,0.0,4.0,83,0.00,,---,0.00,VWS V13.01,2013-01-08 06:28:00,
2013-01-08 00:33:00,45.2,40.3,30.23,East,93,0.0,3.0,83,0.00,,---,0.00,VWS V13.01,2013-01-08 06:33:00,
2013-01-08 00:38:00,45.2,40.3,30.23,East,84,0.0,2.0,83,0.00,,---,0.00,VWS V13.01,2013-01-08 06:38:00,
2013-01-08 00:43:00,45.2,40.3,30.23,East,96,0.0,0.0,83,0.00,,---,0.00,VWS V13.01,2013-01-08 06:43:00,
2013-01-08 00:48:00,45.2,40.3,30.23,NE,42,0.0,4.0,83,0.00,,---,0.00,VWS V13.01,2013-01-08 06:48:00,
2013-01-08 00:53:00,45.2,40.3,30.23,ENE,68,0.0,0.0,83,0.00,,---,0.00,VWS V13.01,2013-01-08 06:53:00,
2013-01-08 00:58:00,45.2,40.3,30.23,NE,55,0.0,0.0,83,0.00,,---,0.00,VWS V13.01,2013-01-08 06:58:00,
2013-01-08 01:03:00,45.2,40.3,30.22,NE,49,0.0,0.0,83,0.00,,---,0.00,VWS V13.01,2013-01-08 07:03:00,
2013-01-08 01:08:00,45.2,40.3,30.23,NE,49,0.0,1.0,83,0.00,,---,0.00,VWS V13.01,2013-01-08 07:08:00,
2013-01-08 01:13:00,45.2,40.7,30.23,NE,49,0.0,0.0,84,0.00,,---,0.00,VWS V13.01,2013-01-08 07:13:00,
2013-01-08 01:18:00,45.1,40.6,30.24,NE,49,0.0,1.0,84,0.00,,---,0.00,VWS V13.01,2013-01-08 07:18:00,
2013-01-08 01:23:00,45.1,40.6,30.24,NE,49,0.0,0.0,84,0.00,,---,0.00,VWS V13.01,2013-01-08 07:23:00,
2013-01-08 01:28:00,45.0,40.5,30.24,NE,49,0.0,0.0,84,0.00,,---,0.00,VWS V13.01,2013-01-08 07:28:00,
2013-01-08 01:33:00,45.0,40.5,30.24,NNE,30,1.0,3.0,84,0.00,,---,0.00,VWS V13.01,2013-01-08 07:33:00,
2013-01-08 01:38:00,45.1,40.6,30.23,NNE,30,0.0,0.0,84,0.00,,---,0.00,VWS V13.01,2013-01-08 07:38:00,
2013-01-08 01:43:00,45.1,40.6,30.23,NNE,31,2.0,2.0,84,0.00,,---,0.00,VWS V13.01,2013-01-08 07:43:00,
2013-01-08 01:48:00,45.1,40.6,30.23,NE,50,0.0,3.0,84,0.00,,---,0.00,VWS V13.01,2013-01-08 07:48:00,
2013-01-08 01:53:00,45.1,40.6,30.23,NE,43,2.0,3.0,84,0.00,,---,0.00,VWS V13.01,2013-01-08 07:53:00,
2013-01-08 01:58:00,45.1,40.6,30.23,NE,39,0.0,3.0,84,0.00,,---,0.00,VWS V13.01,2013-01-08 07:58:00,
2013-01-08 02:03:00,45.1,40.6,30.23,NE,43,0.0,2.0,84,0.00,,---,0.00,VWS V13.01,2013-01-08 08:03:00,
2013-01-08 02:08:00,45.2,41.0,30.23,ENE,78,2.0,6.0,85,0.00,,---,0.00,VWS V13.01,2013-01-08 08:08:00,
2013-01-08 02:13:00,45.3,41.1,30.23,NE,49,0.0,4.0,85,0.00,,---,0.00,VWS V13.01,2013-01-08 08:13:00,
2013-01-08 02:18:00,45.3,41.1,30.23,NE,45,0.0,4.0,85,0.00,,---,0.00,VWS V13.01,2013-01-08 08:18:00,
2013-01-08 02:23:00,45.4,41.2,30.23,NE,45,0.0,2.0,85,0.00,,---,0.00,VWS V13.01,2013-01-08 08:23:00,
2013-01-08 02:28:00,45.4,41.2,30.23,NE,46,0.0,3.0,85,0.00,,---,0.00,VWS V13.01,2013-01-08 08:28:00,
2013-01-08 02:33:00,45.4,41.2,30.23,NE,34,0.0,0.0,85,0.00,,---,0.00,VWS V13.01,2013-01-08 08:33:00,
2013-01-08 02:38:00,45.4,41.2,30.23,NE,34,0.0,0.0,85,0.00,,---,0.00,VWS V13.01,2013-01-08 08:38:00,
2013-01-08 02:43:00,45.3,41.1,30.23,NE,34,0.0,0.0,85,0.00,,---,0.00,VWS V13.01,2013-01-08 08:43:00,
2013-01-08 02:48:00,45.3,41.1,30.23,NE,34,0.0,0.0,85,0.00,,---,0.00,VWS V13.01,2013-01-08 08:48:00,
2013-01-08 02:53:00,45.3,41.1,30.23,NE,51,0.0,4.0,85,0.00,,---,0.00,VWS V13.01,2013-01-08 08:53:00,
2013-01-08 02:58:00,45.4,41.2,30.23,NE,54,1.0,2.0,85,0.00,,---,0.00,VWS V13.01,2013-01-08 08:58:00,
2013-01-08 03:03:00,45.4,41.2,30.23,NE,50,0.0,3.0,85,0.00,,---,0.00,VWS V13.01,2013-01-08 09:03:00,
2013-01-08 03:08:00,45.5,41.3,30.23,NE,42,0.0,5.0,85,0.00,,---,0.00,VWS V13.01,2013-01-08 09:08:00,
2013-01-08 03:13:00,45.6,41.4,30.23,NE,54,0.0,4.0,85,0.00,,---,0.00,VWS V13.01,2013-01-08 09:13:00,
2013-01-08 03:18:00,45.7,41.5,30.23,NE,52,0.0,3.0,85,0.00,,---,0.00,VWS V13.01,2013-01-08 09:18:00,
2013-01-08 03:23:00,45.8,41.5,30.23,ENE,69,2.0,5.0,85,0.00,,---,0.00,VWS V13.01,2013-01-08 09:23:00,
2013-01-08 03:28:00,45.9,41.7,30.23,ENE,61,1.0,6.0,85,0.00,,---,0.00,VWS V13.01,2013-01-08 09:28:00,
2013-01-08 03:33:00,46.0,41.8,30.23,East,88,0.0,4.0,85,0.00,,---,0.00,VWS V13.01,2013-01-08 09:33:00,
2013-01-08 03:38:00,46.1,41.8,30.22,NE,44,0.0,5.0,85,0.00,,---,0.00,VWS V13.01,2013-01-08 09:38:00,
2013-01-08 03:43:00,46.2,42.0,30.22,NE,40,0.0,3.0,85,0.00,,---,0.00,VWS V13.01,2013-01-08 09:43:00,
2013-01-08 03:48:00,46.2,42.0,30.23,NE,54,1.0,5.0,85,0.00,,---,0.00,VWS V13.01,2013-01-08 09:48:00,
2013-01-08 03:53:00,46.3,42.0,30.23,ENE,64,0.0,4.0,85,0.00,,---,0.00,VWS V13.01,2013-01-08 09:53:00,
2013-01-08 03:58:00,46.3,42.0,30.23,NE,41,0.0,4.0,85,0.00,,---,0.00,VWS V13.01,2013-01-08 09:58:00,
2013-01-08 04:03:00,46.4,42.1,30.24,NE,44,0.0,3.0,85,0.00,,---,0.00,VWS V13.01,2013-01-08 10:03:00,
2013-01-08 04:08:00,46.4,42.1,30.24,ENE,67,0.0,1.0,85,0.00,,---,0.00,VWS V13.01,2013-01-08 10:08:00,
2013-01-08 04:13:00,46.5,42.2,30.23,NE,35,0.0,0.0,85,0.00,,---,0.00,VWS V13.01,2013-01-08 10:13:00,
2013-01-08 04:18:00,46.5,42.2,30.23,East,81,0.0,0.0,85,0.00,,---,0.00,VWS V13.01,2013-01-08 10:18:00,
2013-01-08 04:22:00,46.6,42.3,30.23,ESE,111,0.0,0.0,85,0.00,,---,0.00,VWS V13.01,2013-01-08 10:22:00,
2013-01-08 04:27:00,46.7,42.4,30.23,East,99,1.0,2.0,85,0.00,,---,0.00,VWS V13.01,2013-01-08 10:27:00,
2013-01-08 04:32:00,46.8,42.5,30.23,ESE,109,2.0,2.0,85,0.00,,---,0.00,VWS V13.01,2013-01-08 10:32:00,
2013-01-08 04:37:00,46.9,42.6,30.23,ESE,109,0.0,0.0,85,0.00,,---,0.00,VWS V13.01,2013-01-08 10:37:00,
2013-01-08 04:42:00,46.9,42.6,30.23,ENE,76,0.0,0.0,85,0.00,,---,0.00,VWS V13.01,2013-01-08 10:42:00,
2013-01-08 04:47:00,47.0,42.7,30.23,ENE,75,0.0,3.0,85,0.00,,---,0.00,VWS V13.01,2013-01-08 10:47:00,
2013-01-08 04:52:00,47.2,42.9,30.23,ENE,78,0.0,5.0,85,0.00,,---,0.00,VWS V13.01,2013-01-08 10:52:00,
2013-01-08 04:57:00,47.2,42.9,30.23,East,82,0.0,4.0,85,0.00,,---,0.00,VWS V13.01,2013-01-08 10:57:00,
2013-01-08 05:02:00,47.3,43.0,30.24,ENE,76,0.0,1.0,85,0.00,,---,0.00,VWS V13.01,2013-01-08 11:02:00,
2013-01-08 05:07:00,47.4,43.1,30.24,ESE,112,0.0,2.0,85,0.00,,---,0.00,VWS V13.01,2013-01-08 11:07:00,
2013-01-08 05:12:00,47.5,43.2,30.24,ENE,64,1.0,3.0,85,0.00,,---,0.00,VWS V13.01,2013-01-08 11:12:00,
2013-01-08 05:17:00,47.6,43.3,30.24,ENE,62,0.0,0.0,85,0.00,,---,0.00,VWS V13.01,2013-01-08 11:17:00,
2013-01-08 05:22:00,47.7,43.4,30.24,ENE,70,0.0,0.0,85,0.00,,---,0.00,VWS V13.01,2013-01-08 11:22:00,
2013-01-08 05:27:00,47.7,43.4,30.24,ENE,60,0.0,4.0,85,0.00,,---,0.00,VWS V13.01,2013-01-08 11:27:00,
2013-01-08 05:32:00,47.8,43.5,30.24,ENE,57,0.0,1.0,85,0.00,,---,0.00,VWS V13.01,2013-01-08 11:32:00,
2013-01-08 05:37:00,47.8,43.5,30.24,ENE,64,0.0,3.0,85,0.00,,---,0.00,VWS V13.01,2013-01-08 11:37:00,
2013-01-08 05:42:00,47.9,43.3,30.24,ENE,59,0.0,4.0,84,0.00,,---,0.00,VWS V13.01,2013-01-08 11:42:00,
2013-01-08 05:47:00,47.9,43.3,30.25,NE,52,0.0,4.0,84,0.00,,---,0.00,VWS V13.01,2013-01-08 11:47:00,
2013-01-08 05:52:00,47.9,43.3,30.25,NE,55,4.0,4.0,84,0.00,,---,0.00,VWS V13.01,2013-01-08 11:52:00,
2013-01-08 05:57:00,48.0,43.4,30.25,NE,49,0.0,3.0,84,0.00,,---,0.00,VWS V13.01,2013-01-08 11:57:00,
2013-01-08 06:02:00,48.0,43.4,30.25,NE,52,0.0,2.0,84,0.00,,---,0.00,VWS V13.01,2013-01-08 12:02:00,
2013-01-08 06:07:00,48.1,43.5,30.25,NE,52,0.0,2.0,84,0.00,,---,0.00,VWS V13.01,2013-01-08 12:07:00,
2013-01-08 06:12:00,48.1,43.5,30.25,NE,52,0.0,0.0,84,0.00,,---,0.00,VWS V13.01,2013-01-08 12:12:00,
2013-01-08 06:17:00,48.2,43.6,30.26,NE,52,0.0,2.0,84,0.00,,---,0.00,VWS V13.01,2013-01-08 12:17:00,
2013-01-08 06:22:00,48.2,43.6,30.26,NE,52,0.0,2.0,84,0.00,,---,0.00,VWS V13.01,2013-01-08 12:22:00,
2013-01-08 06:27:00,48.2,43.6,30.26,ENE,60,0.0,1.0,84,0.00,,---,0.00,VWS V13.01,2013-01-08 12:27:00,
2013-01-08 06:32:00,48.3,43.7,30.26,ENE,61,0.0,1.0,84,0.00,,---,0.00,VWS V13.01,2013-01-08 12:32:00,
2013-01-08 06:37:00,48.3,43.7,30.26,NE,40,0.0,3.0,84,0.00,,---,0.00,VWS V13.01,2013-01-08 12:37:00,
2013-01-08 06:42:00,48.4,44.1,30.26,NE,38,0.0,2.0,85,0.00,,---,0.00,VWS V13.01,2013-01-08 12:42:00,
2013-01-08 06:47:00,48.4,43.8,30.26,NE,45,1.0,5.0,84,0.00,,---,0.00,VWS V13.01,2013-01-08 12:47:00,
2013-01-08 06:52:00,48.5,44.2,30.27,NE,53,0.0,5.0,85,0.00,,---,0.00,VWS V13.01,2013-01-08 12:52:00,
2013-01-08 06:57:00,48.6,44.0,30.27,East,91,0.0,4.0,84,0.00,,---,0.00,VWS V13.01,2013-01-08 12:57:00,
2013-01-08 07:02:00,48.6,44.3,30.27,NE,41,0.0,1.0,85,0.00,,---,0.00,VWS V13.01,2013-01-08 13:02:00,
2013-01-08 07:07:00,48.7,44.4,30.27,ENE,63,0.0,4.0,85,0.00,,---,0.00,VWS V13.01,2013-01-08 13:07:00,
2013-01-08 07:12:00,48.8,44.5,30.28,East,90,0.0,0.0,85,0.00,,---,0.00,VWS V13.01,2013-01-08 13:12:00,
2013-01-08 07:17:00,48.9,44.6,30.28,East,90,0.0,0.0,85,0.00,,---,0.00,VWS V13.01,2013-01-08 13:17:00,
2013-01-08 07:22:00,49.0,44.7,30.28,NNE,19,0.0,3.0,85,0.00,,---,0.00,VWS V13.01,2013-01-08 13:22:00,
2013-01-08 07:27:00,49.1,44.8,30.27,ENE,67,0.0,3.0,85,0.00,,---,0.00,VWS V13.01,2013-01-08 13:27:00,
2013-01-08 07:32:00,49.3,45.0,30.28,ENE,57,5.0,5.0,85,0.00,,---,0.00,VWS V13.01,2013-01-08 13:32:00,
2013-01-08 07:37:00,49.4,44.8,30.28,NE,42,4.0,4.0,84,0.00,,---,0.00,VWS V13.01,2013-01-08 13:37:00,
2013-01-08 07:42:00,49.5,44.9,30.28,ENE,57,2.0,5.0,84,0.00,,---,0.00,VWS V13.01,2013-01-08 13:42:00,
2013-01-08 07:47:00,49.6,45.3,30.28,ENE,58,3.0,4.0,85,0.00,,---,0.00,VWS V13.01,2013-01-08 13:47:00,
2013-01-08 07:52:00,49.7,45.1,30.28,East,82,0.0,0.0,84,0.00,,---,0.00,VWS V13.01,2013-01-08 13:52:00,
2013-01-08 07:57:00,49.8,45.2,30.28,NE,36,0.0,1.0,84,0.00,,---,0.00,VWS V13.01,2013-01-08 13:57:00,
2013-01-08 08:02:00,49.9,45.3,30.28,East,97,2.0,4.0,84,0.00,,---,0.00,VWS V13.01,2013-01-08 14:02:00,
2013-01-08 08:07:00,50.0,45.4,30.29,NE,48,0.0,3.0,84,0.00,,---,0.00,VWS V13.01,2013-01-08 14:07:00,
2013-01-08 08:12:00,50.2,45.6,30.29,NE,44,0.0,4.0,84,0.00,,---,0.00,VWS V13.01,2013-01-08 14:12:00,
2013-01-08 08:17:00,50.5,45.8,30.30,ENE,69,0.0,1.0,84,0.00,,---,0.00,VWS V13.01,2013-01-08 14:17:00,
2013-01-08 08:22:00,50.9,46.2,30.29,ENE,58,0.0,3.0,84,0.00,,---,0.00,VWS V13.01,2013-01-08 14:22:00,
2013-01-08 08:27:00,51.3,46.3,30.29,East,91,3.0,5.0,83,0.00,,---,0.00,VWS V13.01,2013-01-08 14:27:00,
2013-01-08 08:32:00,51.8,46.5,30.29,ENE,61,6.0,7.0,82,0.00,,---,0.00,VWS V13.01,2013-01-08 14:32:00,
2013-01-08 08:37:00,52.3,47.0,30.29,NE,48,0.0,6.0,82,0.00,,---,0.00,VWS V13.01,2013-01-08 14:37:00,
2013-01-08 08:42:00,52.9,47.2,30.30,NE,52,2.0,5.0,81,0.00,,---,0.00,VWS V13.01,2013-01-08 14:42:00,
2013-01-08 08:47:00,53.4,47.4,30.29,ENE,74,0.0,4.0,80,0.00,,---,0.00,VWS V13.01,2013-01-08 14:47:00,
2013-01-08 08:52:00,53.5,47.5,30.30,NE,50,0.0,4.0,80,0.00,,---,0.00,VWS V13.01,2013-01-08 14:52:00,
2013-01-08 08:57:00,53.5,47.5,30.29,ENE,76,0.0,6.0,80,0.00,,---,0.00,VWS V13.01,2013-01-08 14:57:00,
2013-01-08 09:02:00,53.6,47.6,30.29,East,86,0.0,4.0,80,0.00,,---,0.00,VWS V13.01,2013-01-08 15:02:00,
2013-01-08 09:07:00,54.2,48.2,30.29,ESE,117,1.0,7.0,80,0.00,,---,0.00,VWS V13.01,2013-01-08 15:07:00,
2013-01-08 09:12:00,54.7,48.3,30.29,East,90,1.0,7.0,79,0.00,,---,0.00,VWS V13.01,2013-01-08 15:12:00,
2013-01-08 09:17:00,54.8,48.1,30.30,ENE,71,1.0,7.0,78,0.00,,---,0.00,VWS V13.01,2013-01-08 15:17:00,
2013-01-08 09:22:00,55.0,48.3,30.30,ENE,69,4.0,7.0,78,0.00,,---,0.00,VWS V13.01,2013-01-08 15:22:00,
2013-01-08 09:27:00,55.7,49.3,30.30,East,100,0.0,2.0,79,0.00,,---,0.00,VWS V13.01,2013-01-08 15:27:00,
2013-01-08 09:32:00,56.2,49.4,30.30,East,100,1.0,3.0,78,0.00,,---,0.00,VWS V13.01,2013-01-08 15:32:00,
2013-01-08 09:37:00,56.2,49.4,30.30,ENE,78,0.0,2.0,78,0.00,,---,0.00,VWS V13.01,2013-01-08 15:37:00,
2013-01-08 09:42:00,57.2,50.1,30.30,ESE,110,2.0,5.0,77,0.00,,---,0.00,VWS V13.01,2013-01-08 15:42:00,
2013-01-08 09:47:00,57.7,50.2,30.30,East,93,0.0,0.0,76,0.00,,---,0.00,VWS V13.01,2013-01-08 15:47:00,
2013-01-08 09:52:00,57.3,49.5,30.30,East,92,0.0,1.0,75,0.00,,---,0.00,VWS V13.01,2013-01-08 15:52:00,
2013-01-08 09:57:00,58.0,50.5,30.30,ENE,64,0.0,4.0,76,0.00,,---,0.00,VWS V13.01,2013-01-08 15:57:00,
2013-01-08 10:02:00,58.4,50.9,30.30,East,98,3.0,5.0,76,0.00,,---,0.00,VWS V13.01,2013-01-08 16:02:00,
2013-01-08 10:07:00,59.2,51.7,30.30,ENE,77,0.0,6.0,76,0.00,,---,0.00,VWS V13.01,2013-01-08 16:07:00,
2013-01-08 10:12:00,59.5,51.6,30.30,East,82,0.0,2.0,75,0.00,,---,0.00,VWS V13.01,2013-01-08 16:12:00,
2013-01-08 10:17:00,59.6,52.0,30.30,ESE,107,0.0,3.0,76,0.00,,---,0.00,VWS V13.01,2013-01-08 16:17:00,
2013-01-08 10:22:00,59.1,51.2,30.29,SE,145,0.0,3.0,75,0.00,,---,0.00,VWS V13.01,2013-01-08 16:22:00,
2013-01-08 10:27:00,59.1,51.5,30.29,ENE,69,2.0,4.0,76,0.00,,---,0.00,VWS V13.01,2013-01-08 16:27:00,
2013-01-08 10:32:00,59.2,51.7,30.29,East,82,3.0,5.0,76,0.00,,---,0.00,VWS V13.01,2013-01-08 16:32:00,
2013-01-08 10:37:00,59.1,51.9,30.29,SE,130,4.0,4.0,77,0.00,,---,0.00,VWS V13.01,2013-01-08 16:37:00,
2013-01-08 10:42:00,59.4,52.2,30.29,ESE,109,2.0,6.0,77,0.00,,---,0.00,VWS V13.01,2013-01-08 16:42:00,
2013-01-08 10:47:00,59.6,52.4,30.28,NE,49,0.0,6.0,77,0.00,,---,0.00,VWS V13.01,2013-01-08 16:47:00,
2013-01-08 10:52:00,59.4,51.8,30.28,ENE,74,0.0,4.0,76,0.00,,---,0.00,VWS V13.01,2013-01-08 16:52:00,
2013-01-08 10:57:00,59.4,51.8,30.28,ENE,70,0.0,5.0,76,0.00,,---,0.00,VWS V13.01,2013-01-08 16:57:00,
2013-01-08 11:02:00,59.4,51.8,30.28,ESE,108,2.0,4.0,76,0.00,,---,0.00,VWS V13.01,2013-01-08 17:02:00,
2013-01-08 11:07:00,60.0,52.4,30.28,East,87,0.0,1.0,76,0.00,,---,0.00,VWS V13.01,2013-01-08 17:07:00,
2013-01-08 11:12:00,60.0,52.8,30.28,East,91,3.0,4.0,77,0.00,,---,0.00,VWS V13.01,2013-01-08 17:12:00,
2013-01-08 11:17:00,60.2,52.3,30.28,ESE,111,0.0,1.0,75,0.00,,---,0.00,VWS V13.01,2013-01-08 17:17:00,
2013-01-08 11:22:00,59.8,52.2,30.28,ESE,111,0.0,1.0,76,0.00,,---,0.00,VWS V13.01,2013-01-08 17:22:00,
2013-01-08 11:27:00,59.9,53.0,30.28,ESE,111,0.0,2.0,78,0.00,,---,0.00,VWS V13.01,2013-01-08 17:27:00,
2013-01-08 11:32:00,60.0,52.8,30.28,ESE,115,0.0,1.0,77,0.00,,---,0.00,VWS V13.01,2013-01-08 17:32:00,
2013-01-08 11:37:00,59.6,52.4,30.27,ESE,115,0.0,0.0,77,0.00,,---,0.00,VWS V13.01,2013-01-08 17:37:00,
2013-01-08 11:42:00,60.2,53.0,30.27,ESE,115,0.0,0.0,77,0.00,,---,0.00,VWS V13.01,2013-01-08 17:42:00,
2013-01-08 11:47:00,60.4,53.2,30.27,ESE,115,0.0,1.0,77,0.00,,---,0.00,VWS V13.01,2013-01-08 17:47:00,
2013-01-08 11:52:00,61.1,53.5,30.27,ESE,115,0.0,1.0,76,0.00,,---,0.00,VWS V13.01,2013-01-08 17:52:00,
2013-01-08 11:57:00,61.3,53.7,30.26,ESE,115,0.0,0.0,76,0.00,,---,0.00,VWS V13.01,2013-01-08 17:57:00,
2013-01-08 12:02:00,61.0,53.4,30.26,ESE,115,0.0,1.0,76,0.00,,---,0.00,VWS V13.01,2013-01-08 18:02:00,
2013-01-08 12:07:00,60.7,52.7,30.26,NNE,26,3.0,4.0,75,0.00,,---,0.00,VWS V13.01,2013-01-08 18:07:00,
2013-01-08 12:12:00,60.6,53.4,30.25,NNE,32,2.0,3.0,77,0.00,,---,0.00,VWS V13.01,2013-01-08 18:12:00,
2013-01-08 12:17:00,60.9,53.3,30.25,NE,38,1.0,1.0,76,0.00,,---,0.00,VWS V13.01,2013-01-08 18:17:00,
2013-01-08 12:22:00,60.9,53.3,30.25,NNE,30,1.0,4.0,76,0.00,,---,0.00,VWS V13.01,2013-01-08 18:22:00,
2013-01-08 12:27:00,60.8,53.5,30.24,NNE,31,1.0,3.0,77,0.00,,---,0.00,VWS V13.01,2013-01-08 18:27:00,
2013-01-08 12:32:00,60.6,53.4,30.25,NNE,30,2.0,3.0,77,0.00,,---,0.00,VWS V13.01,2013-01-08 18:32:00,
2013-01-08 12:37:00,61.0,54.1,30.24,NNE,30,0.0,1.0,78,0.00,,---,0.00,VWS V13.01,2013-01-08 18:37:00,
2013-01-08 12:42:00,61.3,53.7,30.24,NNE,30,0.0,2.0,76,0.00,,---,0.00,VWS V13.01,2013-01-08 18:42:00,
2013-01-08 12:47:00,61.5,53.9,30.24,NNE,30,0.0,4.0,76,0.00,,---,0.00,VWS V13.01,2013-01-08 18:47:00,
2013-01-08 12:52:00,61.1,53.5,30.24,NNE,28,0.0,3.0,76,0.00,,---,0.00,VWS V13.01,2013-01-08 18:52:00,
2013-01-08 12:57:00,61.3,54.0,30.24,NNE,28,0.0,0.0,77,0.00,,---,0.00,VWS V13.01,2013-01-08 18:57:00,
2013-01-08 13:02:00,61.6,54.3,30.24,NNE,28,0.0,2.0,77,0.00,,---,0.00,VWS V13.01,2013-01-08 19:02:00,
2013-01-08 13:07:00,61.8,54.5,30.24,NNE,28,0.0,0.0,77,0.00,,---,0.00,VWS V13.01,2013-01-08 19:07:00,
2013-01-08 13:12:00,62.0,54.4,30.24,NNE,29,0.0,4.0,76,0.00,,---,0.00,VWS V13.01,2013-01-08 19:12:00,
2013-01-08 13:17:00,61.8,54.2,30.23,NNE,29,0.0,3.0,76,0.00,,---,0.00,VWS V13.01,2013-01-08 19:17:00,
2013-01-08 13:22:00,61.4,54.1,30.23,NNE,29,2.0,2.0,77,0.00,,---,0.00,VWS V13.01,2013-01-08 19:22:00,
2013-01-08 13:27:00,61.5,54.2,30.23,NNE,29,0.0,4.0,77,0.00,,---,0.00,VWS V13.01,2013-01-08 19:27:00,
2013-01-08 13:32:00,61.4,54.1,30.23,NNE,29,0.0,0.0,77,0.00,,---,0.00,VWS V13.01,2013-01-08 19:32:00,
2013-01-08 13:37:00,61.3,54.0,30.23,NE,48,2.0,6.0,77,0.00,,---,0.00,VWS V13.01,2013-01-08 19:37:00,
2013-01-08 13:42:00,61.4,54.5,30.23,ENE,63,0.0,1.0,78,0.00,,---,0.00,VWS V13.01,2013-01-08 19:42:00,
2013-01-08 13:47:00,61.5,54.6,30.23,ENE,63,0.0,0.0,78,0.00,,---,0.00,VWS V13.01,2013-01-08 19:47:00,
2013-01-08 13:52:00,61.5,54.2,30.23,NE,40,1.0,3.0,77,0.00,,---,0.00,VWS V13.01,2013-01-08 19:52:00,
2013-01-08 13:57:00,61.4,54.5,30.23,NE,54,0.0,2.0,78,0.00,,---,0.00,VWS V13.01,2013-01-08 19:57:00,
2013-01-08 14:02:00,61.4,54.5,30.23,NE,54,0.0,0.0,78,0.00,,---,0.00,VWS V13.01,2013-01-08 20:02:00,
2013-01-08 14:07:00,61.3,54.4,30.23,NE,54,0.0,1.0,78,0.00,,---,0.00,VWS V13.01,2013-01-08 20:07:00,
2013-01-08 14:12:00,61.4,54.5,30.22,NE,54,0.0,1.0,78,0.00,,---,0.00,VWS V13.01,2013-01-08 20:12:00,
2013-01-08 14:17:00,61.6,54.7,30.22,NE,55,0.0,1.0,78,0.00,,---,0.00,VWS V13.01,2013-01-08 20:17:00,
2013-01-08 14:22:00,61.7,54.8,30.22,NE,55,0.0,0.0,78,0.00,,---,0.00,VWS V13.01,2013-01-08 20:22:00,
2013-01-08 14:27:00,61.8,54.9,30.22,NE,55,0.0,1.0,78,0.00,,---,0.00,VWS V13.01,2013-01-08 20:27:00,
2013-01-08 14:32:00,61.8,54.9,30.22,NE,54,0.0,3.0,78,0.00,,---,0.00,VWS V13.01,2013-01-08 20:32:00,
2013-01-08 14:37:00,62.0,55.1,30.22,NE,54,0.0,1.0,78,0.00,,---,0.00,VWS V13.01,2013-01-08 20:37:00,
2013-01-08 14:42:00,62.1,55.2,30.22,NNE,22,0.0,2.0,78,0.00,,---,0.00,VWS V13.01,2013-01-08 20:42:00,
2013-01-08 14:47:00,62.2,55.3,30.22,NNE,22,4.0,4.0,78,0.00,,---,0.00,VWS V13.01,2013-01-08 20:47:00,
2013-01-08 14:52:00,62.2,54.9,30.22,NNE,22,0.0,0.0,77,0.00,,---,0.00,VWS V13.01,2013-01-08 20:52:00,
2013-01-08 14:57:00,62.2,55.3,30.23,NNE,22,0.0,1.0,78,0.00,,---,0.00,VWS V13.01,2013-01-08 20:57:00,
2013-01-08 15:02:00,62.2,55.3,30.23,NNE,22,0.0,1.0,78,0.00,,---,0.00,VWS V13.01,2013-01-08 21:02:00,
2013-01-08 15:07:00,62.2,55.3,30.23,NNE,22,0.0,0.0,78,0.00,,---,0.00,VWS V13.01,2013-01-08 21:07:00,
2013-01-08 15:12:00,62.3,55.4,30.22,NNE,22,0.0,3.0,78,0.00,,---,0.00,VWS V13.01,2013-01-08 21:12:00,
2013-01-08 15:17:00,62.3,55.4,30.22,NNE,22,0.0,0.0,78,0.00,,---,0.00,VWS V13.01,2013-01-08 21:17:00,
2013-01-08 15:22:00,62.3,55.4,30.22,NNE,19,0.0,1.0,78,0.00,,---,0.00,VWS V13.01,2013-01-08 21:22:00,
2013-01-08 15:27:00,62.3,55.4,30.23,NNE,19,0.0,0.0,78,0.00,,---,0.00,VWS V13.01,2013-01-08 21:27:00,
2013-01-08 15:32:00,62.3,55.4,30.22,NNE,19,0.0,2.0,78,0.00,,---,0.00,VWS V13.01,2013-01-08 21:32:00,
2013-01-08 15:37:00,62.3,55.7,30.22,NNE,19,0.0,1.0,79,0.00,,---,0.00,VWS V13.01,2013-01-08 21:37:00,
2013-01-08 15:42:00,62.3,55.7,30.22,NNE,19,0.0,0.0,79,0.00,,---,0.00,VWS V13.01,2013-01-08 21:42:00,
2013-01-08 15:47:00,62.3,55.7,30.22,NNE,19,2.0,2.0,79,0.00,,---,0.00,VWS V13.01,2013-01-08 21:47:00,
2013-01-08 15:52:00,62.2,55.6,30.22,NNE,19,0.0,2.0,79,0.00,,---,0.00,VWS V13.01,2013-01-08 21:52:00,
2013-01-08 15:57:00,62.2,55.6,30.23,NNE,19,0.0,3.0,79,0.00,,---,0.00,VWS V13.01,2013-01-08 21:57:00,
2013-01-08 16:02:00,62.2,55.6,30.23,NNE,19,0.0,3.0,79,0.00,,---,0.00,VWS V13.01,2013-01-08 22:02:00,
2013-01-08 16:07:00,62.1,55.9,30.23,NNE,19,0.0,0.0,80,0.00,,---,0.00,VWS V13.01,2013-01-08 22:07:00,
2013-01-08 16:12:00,62.1,55.9,30.23,NNE,19,0.0,0.0,80,0.00,,---,0.00,VWS V13.01,2013-01-08 22:12:00,
2013-01-08 16:17:00,62.1,55.9,30.23,NNE,19,0.0,1.0,80,0.00,,---,0.00,VWS V13.01,2013-01-08 22:17:00,
2013-01-08 16:22:00,62.0,55.8,30.23,NNE,19,1.0,1.0,80,0.00,,---,0.00,VWS V13.01,2013-01-08 22:22:00,
2013-01-08 16:27:00,62.0,55.8,30.22,NNE,19,2.0,3.0,80,0.00,,---,0.00,VWS V13.01,2013-01-08 22:27:00,
2013-01-08 16:32:00,61.8,55.6,30.21,NNE,19,0.0,3.0,80,0.00,,---,0.00,VWS V13.01,2013-01-08 22:32:00,
2013-01-08 16:37:00,61.8,55.6,30.22,NNE,19,1.0,1.0,80,0.00,,---,0.00,VWS V13.01,2013-01-08 22:37:00,
2013-01-08 16:42:00,61.8,55.6,30.21,NE,53,3.0,3.0,80,0.00,,---,0.00,VWS V13.01,2013-01-08 22:42:00,
2013-01-08 16:47:00,61.7,55.8,30.21,NE,51,4.0,4.0,81,0.00,,---,0.00,VWS V13.01,2013-01-08 22:47:00,
2013-01-08 16:52:00,61.5,55.6,30.20,NNE,31,2.0,5.0,81,0.00,,---,0.00,VWS V13.01,2013-01-08 22:52:00,
2013-01-08 16:57:00,61.3,55.4,30.20,NE,48,3.0,4.0,81,0.00,,---,0.00,VWS V13.01,2013-01-08 22:57:00,
2013-01-08 17:02:00,61.2,55.3,30.20,NE,49,0.0,7.0,81,0.00,,---,0.00,VWS V13.01,2013-01-08 23:02:00,
2013-01-08 17:07:00,61.0,55.5,30.20,NNE,18,0.0,2.0,82,0.00,,---,0.00,VWS V13.01,2013-01-08 23:07:00,
2013-01-08 17:12:00,60.8,55.3,30.21,NNE,13,0.0,5.0,82,0.00,,---,0.00,VWS V13.01,2013-01-08 23:12:00,
2013-01-08 17:17:00,60.7,55.2,30.21,NNE,13,0.0,0.0,82,0.00,,---,0.00,VWS V13.01,2013-01-08 23:17:00,
2013-01-08 17:22:00,60.5,55.0,30.21,NNE,13,0.0,0.0,82,0.00,,---,0.00,VWS V13.01,2013-01-08 23:22:00,
2013-01-08 17:27:00,60.3,54.8,30.21,NNE,13,0.0,1.0,82,0.00,,---,0.00,VWS V13.01,2013-01-08 23:27:00,
2013-01-08 17:32:00,60.1,54.9,30.22,NNE,13,0.0,0.0,83,0.00,,---,0.00,VWS V13.01,2013-01-08 23:32:00,
2013-01-08 17:37:00,59.9,54.7,30.22,NNE,13,0.0,0.0,83,0.00,,---,0.00,VWS V13.01,2013-01-08 23:37:00,
2013-01-08 17:42:00,59.8,54.6,30.22,NNE,13,0.0,0.0,83,0.00,,---,0.00,VWS V13.01,2013-01-08 23:42:00,
2013-01-08 17:47:00,59.6,54.4,30.22,NNE,13,0.0,0.0,83,0.00,,---,0.00,VWS V13.01,2013-01-08 23:47:00,
2013-01-08 17:52:00,59.5,54.3,30.22,NNE,13,0.0,0.0,83,0.00,,---,0.00,VWS V13.01,2013-01-08 23:52:00,
2013-01-08 17:57:00,59.3,54.2,30.22,NNE,13,0.0,0.0,83,0.00,,---,0.00,VWS V13.01,2013-01-08 23:57:00,
2013-01-08 18:02:00,59.2,54.4,30.22,NNE,13,0.0,1.0,84,0.00,,---,0.00,VWS V13.01,2013-01-09 00:02:00,
2013-01-08 18:07:00,59.1,54.3,30.22,NNE,13,0.0,0.0,84,0.00,,---,0.00,VWS V13.01,2013-01-09 00:07:00,
2013-01-08 18:12:00,59.0,54.2,30.21,NNE,13,2.0,2.0,84,0.00,,---,0.00,VWS V13.01,2013-01-09 00:12:00,
2013-01-08 18:17:00,58.8,54.0,30.22,NNE,13,0.0,2.0,84,0.00,,---,0.00,VWS V13.01,2013-01-09 00:17:00,
2013-01-08 18:22:00,58.7,54.2,30.21,NNE,13,0.0,2.0,85,0.00,,---,0.00,VWS V13.01,2013-01-09 00:22:00,
2013-01-08 18:27:00,58.6,54.1,30.21,NNE,13,0.0,1.0,85,0.00,,---,0.00,VWS V13.01,2013-01-09 00:27:00,
2013-01-08 18:32:00,58.5,54.0,30.21,NNE,13,0.0,3.0,85,0.00,,---,0.00,VWS V13.01,2013-01-09 00:32:00,
2013-01-08 18:37:00,58.5,54.3,30.22,NNE,13,0.0,1.0,86,0.00,,---,0.00,VWS V13.01,2013-01-09 00:37:00,
2013-01-08 18:42:00,58.5,54.3,30.22,NNE,14,0.0,1.0,86,0.00,,---,0.00,VWS V13.01,2013-01-09 00:42:00,
2013-01-08 18:47:00,58.5,54.3,30.22,NNE,14,0.0,1.0,86,0.00,,---,0.00,VWS V13.01,2013-01-09 00:47:00,
2013-01-08 18:52:00,58.6,54.4,30.22,NNE,14,0.0,1.0,86,0.00,,---,0.00,VWS V13.01,2013-01-09 00:52:00,
2013-01-08 18:57:00,58.6,54.4,30.22,NNE,14,0.0,0.0,86,0.00,,---,0.00,VWS V13.01,2013-01-09 00:57:00,
2013-01-08 19:02:00,58.6,54.4,30.22,NNE,14,0.0,0.0,86,0.00,,---,0.00,VWS V13.01,2013-01-09 01:02:00,
2013-01-08 19:07:00,58.7,54.5,30.22,NNE,14,0.0,1.0,86,0.00,,---,0.00,VWS V13.01,2013-01-09 01:07:00,
2013-01-08 19:12:00,58.7,54.5,30.22,NNE,14,0.0,1.0,86,0.00,,---,0.00,VWS V13.01,2013-01-09 01:12:00,
2013-01-08 19:17:00,58.8,54.6,30.22,NNE,14,0.0,3.0,86,0.00,,---,0.00,VWS V13.01,2013-01-09 01:17:00,
2013-01-08 19:22:00,58.9,54.7,30.22,NNE,14,0.0,3.0,86,0.00,,---,0.00,VWS V13.01,2013-01-09 01:22:00,
2013-01-08 19:27:00,59.0,54.8,30.22,NE,44,0.0,4.0,86,0.00,,---,0.00,VWS V13.01,2013-01-09 01:27:00,
2013-01-08 19:32:00,59.1,54.9,30.21,NNE,20,2.0,4.0,86,0.00,,---,0.00,VWS V13.01,2013-01-09 01:32:00,
2013-01-08 19:37:00,59.2,55.0,30.21,NNE,30,0.0,4.0,86,0.00,,---,0.00,VWS V13.01,2013-01-09 01:37:00,
2013-01-08 19:42:00,59.4,55.2,30.21,NE,48,0.0,1.0,86,0.00,,---,0.00,VWS V13.01,2013-01-09 01:42:00,
2013-01-08 19:47:00,59.5,55.3,30.22,ENE,58,2.0,2.0,86,0.00,,---,0.00,VWS V13.01,2013-01-09 01:47:00,
2013-01-08 19:52:00,59.6,55.4,30.22,NE,41,0.0,4.0,86,0.00,,---,0.00,VWS V13.01,2013-01-09 01:52:00,
2013-01-08 19:57:00,59.7,55.5,30.21,ENE,70,0.0,1.0,86,0.00,,---,0.00,VWS V13.01,2013-01-09 01:57:00,
2013-01-08 20:02:00,59.8,55.6,30.21,ENE,63,0.0,3.0,86,0.00,,---,0.00,VWS V13.01,2013-01-09 02:02:00,
2013-01-08 20:07:00,59.8,55.6,30.21,ENE,61,3.0,3.0,86,0.00,,---,0.00,VWS V13.01,2013-01-09 02:07:00,
2013-01-08 20:12:00,59.8,55.6,30.21,East,86,0.0,0.0,86,0.00,,---,0.00,VWS V13.01,2013-01-09 02:12:00,
2013-01-08 20:17:00,59.8,55.6,30.21,ENE,57,0.0,0.0,86,0.00,,---,0.00,VWS V13.01,2013-01-09 02:17:00,
2013-01-08 20:22:00,59.8,55.6,30.21,ENE,57,0.0,0.0,86,0.00,,---,0.00,VWS V13.01,2013-01-09 02:22:00,
2013-01-08 20:27:00,59.8,55.6,30.21,ENE,57,0.0,0.0,86,0.00,,---,0.00,VWS V13.01,2013-01-09 02:27:00,
2013-01-08 20:32:00,59.8,55.6,30.22,ENE,57,0.0,0.0,86,0.00,,---,0.00,VWS V13.01,2013-01-09 02:32:00,
2013-01-08 20:37:00,59.8,55.6,30.22,ENE,57,0.0,0.0,86,0.00,,---,0.00,VWS V13.01,2013-01-09 02:37:00,
2013-01-08 20:42:00,59.8,55.6,30.22,ENE,57,0.0,0.0,86,0.00,,---,0.00,VWS V13.01,2013-01-09 02:42:00,
2013-01-08 20:47:00,59.8,55.6,30.21,ENE,57,0.0,1.0,86,0.00,,---,0.00,VWS V13.01,2013-01-09 02:47:00,
2013-01-08 20:52:00,59.7,55.5,30.21,ENE,57,0.0,0.0,86,0.00,,---,0.00,VWS V13.01,2013-01-09 02:52:00,
2013-01-08 20:57:00,59.6,55.4,30.21,ENE,57,0.0,1.0,86,0.00,,---,0.00,VWS V13.01,2013-01-09 02:57:00,
2013-01-08 21:02:00,59.6,55.4,30.21,ENE,57,0.0,0.0,86,0.00,,---,0.00,VWS V13.01,2013-01-09 03:02:00,
2013-01-08 21:07:00,59.5,55.3,30.21,ENE,57,0.0,0.0,86,0.00,,---,0.00,VWS V13.01,2013-01-09 03:07:00,
2013-01-08 21:12:00,59.4,55.5,30.21,ENE,57,1.0,3.0,87,0.00,,---,0.00,VWS V13.01,2013-01-09 03:12:00,
2013-01-08 21:16:00,59.3,55.4,30.21,ENE,58,0.0,1.0,87,0.00,,---,0.00,VWS V13.01,2013-01-09 03:16:00,
2013-01-08 21:21:00,59.2,55.3,30.21,ENE,58,0.0,1.0,87,0.00,,---,0.00,VWS V13.01,2013-01-09 03:21:00,
2013-01-08 21:26:00,59.1,55.2,30.22,East,92,0.0,0.0,87,0.00,,---,0.00,VWS V13.01,2013-01-09 03:26:00,
2013-01-08 21:31:00,59.0,55.1,30.22,East,92,0.0,0.0,87,0.00,,---,0.00,VWS V13.01,2013-01-09 03:31:00,
2013-01-08 21:36:00,58.9,55.0,30.21,ENE,65,0.0,1.0,87,0.00,,---,0.00,VWS V13.01,2013-01-09 03:36:00,
2013-01-08 21:41:00,58.9,55.4,30.21,ENE,74,0.0,2.0,88,0.00,,---,0.00,VWS V13.01,2013-01-09 03:41:00,
2013-01-08 21:47:00,58.9,55.4,30.22,ESE,115,0.0,1.0,88,0.00,,---,0.00,VWS V13.01,2013-01-09 03:47:00,
2013-01-08 21:52:00,58.9,55.7,30.22,ENE,72,0.0,1.0,89,0.00,,---,0.00,VWS V13.01,2013-01-09 03:52:00,
2013-01-08 21:56:00,59.0,55.8,30.22,NE,55,0.0,1.0,89,0.00,,---,0.00,VWS V13.01,2013-01-09 03:56:00,
2013-01-08 22:01:00,59.0,55.8,30.23,East,94,1.0,2.0,89,0.00,,---,0.00,VWS V13.01,2013-01-09 04:01:00,
2013-01-08 22:06:00,59.1,55.9,30.23,ENE,78,0.0,4.0,89,0.00,,---,0.00,VWS V13.01,2013-01-09 04:06:00,
2013-01-08 22:11:00,59.3,56.1,30.22,NE,46,0.0,3.0,89,0.00,,---,0.00,VWS V13.01,2013-01-09 04:11:00,
2013-01-08 22:16:00,59.3,56.1,30.22,ENE,71,0.0,1.0,89,0.00,,---,0.00,VWS V13.01,2013-01-09 04:16:00,
2013-01-08 22:22:00,59.4,56.2,30.22,ENE,59,3.0,3.0,89,0.00,,---,0.00,VWS V13.01,2013-01-09 04:22:00,
2013-01-08 22:27:00,59.4,56.2,30.23,East,87,0.0,0.0,89,0.00,,---,0.00,VWS V13.01,2013-01-09 04:27:00,
2013-01-08 22:31:00,59.4,56.2,30.22,ENE,71,0.0,1.0,89,0.00,,---,0.00,VWS V13.01,2013-01-09 04:31:00,
2013-01-08 22:36:00,59.5,56.3,30.23,East,79,0.0,3.0,89,0.00,,---,0.00,VWS V13.01,2013-01-09 04:36:00,
2013-01-08 22:41:00,59.5,56.6,30.23,East,88,0.0,2.0,90,0.00,,---,0.00,VWS V13.01,2013-01-09 04:41:00,
2013-01-08 22:46:00,59.7,56.8,30.23,East,88,4.0,4.0,90,0.00,,---,0.00,VWS V13.01,2013-01-09 04:46:00,
2013-01-08 22:51:00,59.8,56.9,30.22,ESE,109,2.0,3.0,90,0.00,,---,0.00,VWS V13.01,2013-01-09 04:51:00,
2013-01-08 22:57:00,59.9,57.0,30.23,ESE,123,4.0,4.0,90,0.00,,---,0.00,VWS V13.01,2013-01-09 04:57:00,
2013-01-08 23:00:00,60.0,57.1,30.23,ESE,105,0.0,6.0,90,0.00,,---,0.00,VWS V13.01,2013-01-09 05:00:00,
2013-01-08 23:01:00,60.0,57.1,30.23,ENE,76,0.0,6.0,90,0.00,,---,0.00,VWS V13.01,2013-01-09 05:01:00,
2013-01-08 23:06:00,60.1,57.2,30.22,ENE,68,4.0,5.0,90,0.00,,---,0.00,VWS V13.01,2013-01-09 05:06:00,
2013-01-08 23:11:00,60.2,57.3,30.23,ENE,73,0.0,4.0,90,0.00,,---,0.00,VWS V13.01,2013-01-09 05:11:00,
2013-01-08 23:16:00,60.2,57.0,30.22,East,86,0.0,0.0,89,0.00,,---,0.00,VWS V13.01,2013-01-09 05:16:00,
2013-01-08 23:21:00,60.3,57.0,30.23,East,81,0.0,3.0,89,0.00,,---,0.00,VWS V13.01,2013-01-09 05:21:00,
2013-01-08 23:26:00,60.4,57.2,30.23,East,82,0.0,0.0,89,0.00,,---,0.00,VWS V13.01,2013-01-09 05:26:00,
2013-01-08 23:31:00,60.4,57.2,30.23,ENE,64,0.0,5.0,89,0.00,,---,0.00,VWS V13.01,2013-01-09 05:31:00,
2013-01-08 23:36:00,60.4,57.2,30.22,ENE,67,3.0,3.0,89,0.00,,---,0.00,VWS V13.01,2013-01-09 05:36:00,
2013-01-08 23:41:00,60.5,57.2,30.22,East,90,1.0,1.0,89,0.00,,---,0.00,VWS V13.01,2013-01-09 05:41:00,
2013-01-08 23:46:00,60.5,57.2,30.22,ENE,59,0.0,0.0,89,0.00,,---,0.00,VWS V13.01,2013-01-09 05:46:00,
2013-01-08 23:51:00,60.6,57.3,30.22,ENE,69,0.0,3.0,89,0.00,,---,0.00,VWS V13.01,2013-01-09 05:51:00,
2013-01-08 23:56:00,60.6,57.3,30.23,NE,42,0.0,0.0,89,0.00,,---,0.00,VWS V13.01,2013-01-09 05:56:00,